Year,Month,Day,Hour,Minute,Value (Times are PST for temperature in C)
2017,10,27,00,00,6.90
2017,10,27,00,01,6.90
2017,10,27,00,02,6.90
2017,10,27,00,03,6.90
2017,10,27,00,04,6.90
2017,10,27,00,05,6.80
2017,10,27,00,06,6.80
2017,10,27,00,07,6.80
2017,10,27,00,08,6.80
2017,10,27,00,09,6.80
2017,10,27,00,10,6.80
2017,10,27,00,11,6.80
2017,10,27,00,12,6.70
2017,10,27,00,13,6.70
2017,10,27,00,14,6.70
2017,10,27,00,15,6.70
2017,10,27,00,16,6.70
2017,10,27,00,17,6.70
2017,10,27,00,18,6.70
2017,10,27,00,19,6.70
2017,10,27,00,20,6.70
2017,10,27,00,21,6.80
2017,10,27,00,22,6.80
2017,10,27,00,23,6.80
2017,10,27,00,24,6.70
2017,10,27,00,25,6.70
2017,10,27,00,26,6.70
2017,10,27,00,27,6.60
2017,10,27,00,28,6.60
2017,10,27,00,29,6.60
2017,10,27,00,30,6.50
2017,10,27,00,31,6.40
2017,10,27,00,32,6.40
2017,10,27,00,33,6.40
2017,10,27,00,34,6.40
2017,10,27,00,35,6.40
2017,10,27,00,36,6.40
2017,10,27,00,37,6.40
2017,10,27,00,38,6.40
2017,10,27,00,39,6.40
2017,10,27,00,40,6.40
2017,10,27,00,41,6.40
2017,10,27,00,42,6.40
2017,10,27,00,43,6.40
2017,10,27,00,44,6.40
2017,10,27,00,45,6.40
2017,10,27,00,46,6.40
2017,10,27,00,47,6.40
2017,10,27,00,48,6.40
2017,10,27,00,49,6.40
2017,10,27,00,50,6.40
2017,10,27,00,51,6.40
2017,10,27,00,52,6.40
2017,10,27,00,53,6.40
2017,10,27,00,54,6.40
2017,10,27,00,55,6.40
2017,10,27,00,56,6.40
2017,10,27,00,57,6.40
2017,10,27,00,58,6.40
2017,10,27,00,59,6.40
2017,10,27,01,00,6.30
2017,10,27,01,01,6.30
2017,10,27,01,02,6.30
2017,10,27,01,03,6.20
2017,10,27,01,04,6.20
2017,10,27,01,05,6.20
2017,10,27,01,06,6.20
2017,10,27,01,07,6.20
2017,10,27,01,08,6.10
2017,10,27,01,09,6.10
2017,10,27,01,10,6.10
2017,10,27,01,11,6.10
2017,10,27,01,12,6.10
2017,10,27,01,13,6.10
2017,10,27,01,14,6.10
2017,10,27,01,15,6.20
2017,10,27,01,16,6.20
2017,10,27,01,17,6.20
2017,10,27,01,18,6.20
2017,10,27,01,19,6.20
2017,10,27,01,20,6.20
2017,10,27,01,21,6.20
2017,10,27,01,22,6.20
2017,10,27,01,23,6.20
2017,10,27,01,24,6.30
2017,10,27,01,25,6.30
2017,10,27,01,26,6.30
2017,10,27,01,27,6.30
2017,10,27,01,28,6.30
2017,10,27,01,29,6.30
2017,10,27,01,30,6.30
2017,10,27,01,31,6.30
2017,10,27,01,32,6.30
2017,10,27,01,33,6.30
2017,10,27,01,34,6.30
2017,10,27,01,35,6.30
2017,10,27,01,36,6.30
2017,10,27,01,37,6.30
2017,10,27,01,38,6.20
2017,10,27,01,39,6.20
2017,10,27,01,40,6.20
2017,10,27,01,41,6.20
2017,10,27,01,42,6.10
2017,10,27,01,43,6.10
2017,10,27,01,44,6.00
2017,10,27,01,45,6.00
2017,10,27,01,46,6.00
2017,10,27,01,47,6.00
2017,10,27,01,48,6.10
2017,10,27,01,49,6.10
2017,10,27,01,50,6.10
2017,10,27,01,51,6.10
2017,10,27,01,52,6.10
2017,10,27,01,53,6.10
2017,10,27,01,54,6.10
2017,10,27,01,55,6.10
2017,10,27,01,56,6.00
2017,10,27,01,57,6.00
2017,10,27,01,58,6.00
2017,10,27,01,59,6.00
2017,10,27,02,00,6.00
2017,10,27,02,01,6.00
2017,10,27,02,02,5.90
2017,10,27,02,03,5.90
2017,10,27,02,04,5.90
2017,10,27,02,05,5.90
2017,10,27,02,06,6.00
2017,10,27,02,07,6.00
2017,10,27,02,08,6.00
2017,10,27,02,09,5.90
2017,10,27,02,10,5.90
2017,10,27,02,11,6.00
2017,10,27,02,12,6.00
2017,10,27,02,13,6.00
2017,10,27,02,14,6.00
2017,10,27,02,15,6.00
2017,10,27,02,16,6.00
2017,10,27,02,17,6.00
2017,10,27,02,18,6.00
2017,10,27,02,19,6.00
2017,10,27,02,20,6.00
2017,10,27,02,21,6.00
2017,10,27,02,22,6.00
2017,10,27,02,23,6.00
2017,10,27,02,24,6.00
2017,10,27,02,25,6.00
2017,10,27,02,26,6.10
2017,10,27,02,27,6.20
2017,10,27,02,28,6.20
2017,10,27,02,29,6.20
2017,10,27,02,30,6.20
2017,10,27,02,31,6.20
2017,10,27,02,32,6.20
2017,10,27,02,33,6.20
2017,10,27,02,34,6.20
2017,10,27,02,35,6.20
2017,10,27,02,36,6.20
2017,10,27,02,37,6.20
2017,10,27,02,38,6.20
2017,10,27,02,39,6.20
2017,10,27,02,40,6.20
2017,10,27,02,41,6.20
2017,10,27,02,42,6.20
2017,10,27,02,43,6.10
2017,10,27,02,44,6.10
2017,10,27,02,45,6.10
2017,10,27,02,46,6.10
2017,10,27,02,47,6.10
2017,10,27,02,48,6.10
2017,10,27,02,49,6.10
2017,10,27,02,50,6.10
2017,10,27,02,51,6.10
2017,10,27,02,52,6.10
2017,10,27,02,53,6.10
2017,10,27,02,54,6.10
2017,10,27,02,55,6.10
2017,10,27,02,56,6.10
2017,10,27,02,57,6.10
2017,10,27,02,58,6.10
2017,10,27,02,59,6.10
2017,10,27,03,00,6.10
2017,10,27,03,01,6.10
2017,10,27,03,02,6.10
2017,10,27,03,03,6.10
2017,10,27,03,04,6.10
2017,10,27,03,05,6.00
2017,10,27,03,06,6.00
2017,10,27,03,07,6.00
2017,10,27,03,08,6.00
2017,10,27,03,09,6.00
2017,10,27,03,10,6.00
2017,10,27,03,11,6.00
2017,10,27,03,12,6.00
2017,10,27,03,13,6.00
2017,10,27,03,14,6.00
2017,10,27,03,15,6.00
2017,10,27,03,16,6.00
2017,10,27,03,17,6.00
2017,10,27,03,18,5.90
2017,10,27,03,19,5.90
2017,10,27,03,20,5.90
2017,10,27,03,21,5.90
2017,10,27,03,22,5.90
2017,10,27,03,23,5.90
2017,10,27,03,24,5.90
2017,10,27,03,25,5.90
2017,10,27,03,26,5.90
2017,10,27,03,27,6.00
2017,10,27,03,28,6.00
2017,10,27,03,29,6.00
2017,10,27,03,30,6.10
2017,10,27,03,31,6.10
2017,10,27,03,32,6.10
2017,10,27,03,33,6.10
2017,10,27,03,34,6.10
2017,10,27,03,35,6.20
2017,10,27,03,36,6.20
2017,10,27,03,37,6.30
2017,10,27,03,38,6.30
2017,10,27,03,39,6.30
2017,10,27,03,40,6.40
2017,10,27,03,41,6.40
2017,10,27,03,42,6.40
2017,10,27,03,43,6.40
2017,10,27,03,44,6.40
2017,10,27,03,45,6.40
2017,10,27,03,46,6.40
2017,10,27,03,47,6.40
2017,10,27,03,48,6.40
2017,10,27,03,49,6.40
2017,10,27,03,50,6.40
2017,10,27,03,51,6.40
2017,10,27,03,52,6.40
2017,10,27,03,53,6.40
2017,10,27,03,54,6.40
2017,10,27,03,55,6.40
2017,10,27,03,56,6.40
2017,10,27,03,57,6.40
2017,10,27,03,58,6.30
2017,10,27,03,59,6.30
2017,10,27,04,00,6.30
2017,10,27,04,01,6.30
2017,10,27,04,02,6.30
2017,10,27,04,03,6.20
2017,10,27,04,04,6.20
2017,10,27,04,05,6.20
2017,10,27,04,06,6.20
2017,10,27,04,07,6.20
2017,10,27,04,08,6.10
2017,10,27,04,09,6.00
2017,10,27,04,10,6.00
2017,10,27,04,11,5.90
2017,10,27,04,12,5.90
2017,10,27,04,13,5.80
2017,10,27,04,14,5.80
2017,10,27,04,15,5.70
2017,10,27,04,16,5.70
2017,10,27,04,17,5.70
2017,10,27,04,18,5.70
2017,10,27,04,19,5.70
2017,10,27,04,20,5.70
2017,10,27,04,21,5.70
2017,10,27,04,22,5.70
2017,10,27,04,23,5.80
2017,10,27,04,24,5.80
2017,10,27,04,25,5.70
2017,10,27,04,26,5.70
2017,10,27,04,27,5.70
2017,10,27,04,28,5.70
2017,10,27,04,29,5.70
2017,10,27,04,30,5.70
2017,10,27,04,31,5.70
2017,10,27,04,32,5.70
2017,10,27,04,33,5.70
2017,10,27,04,34,5.70
2017,10,27,04,35,5.70
2017,10,27,04,36,5.70
2017,10,27,04,37,5.70
2017,10,27,04,38,5.70
2017,10,27,04,39,5.70
2017,10,27,04,40,5.70
2017,10,27,04,41,5.70
2017,10,27,04,42,5.70
2017,10,27,04,43,5.70
2017,10,27,04,44,5.70
2017,10,27,04,45,5.70
2017,10,27,04,46,5.70
2017,10,27,04,47,5.70
2017,10,27,04,48,5.70
2017,10,27,04,49,5.70
2017,10,27,04,50,5.70
2017,10,27,04,51,5.70
2017,10,27,04,52,5.70
2017,10,27,04,53,5.70
2017,10,27,04,54,5.60
2017,10,27,04,55,5.60
2017,10,27,04,56,5.60
2017,10,27,04,57,5.60
2017,10,27,04,58,5.60
2017,10,27,04,59,5.60
2017,10,27,05,00,5.60
2017,10,27,05,01,5.70
2017,10,27,05,02,5.70
2017,10,27,05,03,5.70
2017,10,27,05,04,5.70
2017,10,27,05,05,5.70
2017,10,27,05,06,5.80
2017,10,27,05,07,5.80
2017,10,27,05,08,5.90
2017,10,27,05,09,5.90
2017,10,27,05,10,6.00
2017,10,27,05,11,6.00
2017,10,27,05,12,6.00
2017,10,27,05,13,5.90
2017,10,27,05,14,5.80
2017,10,27,05,15,5.80
2017,10,27,05,16,5.80
2017,10,27,05,17,5.90
2017,10,27,05,18,6.10
2017,10,27,05,19,6.20
2017,10,27,05,20,6.40
2017,10,27,05,21,6.50
2017,10,27,05,22,6.60
2017,10,27,05,23,6.80
2017,10,27,05,24,6.90
2017,10,27,05,25,7.00
2017,10,27,05,26,7.00
2017,10,27,05,27,7.10
2017,10,27,05,28,7.10
2017,10,27,05,29,7.20
2017,10,27,05,30,7.30
2017,10,27,05,31,7.40
2017,10,27,05,32,7.60
2017,10,27,05,33,7.70
2017,10,27,05,34,7.80
2017,10,27,05,35,7.90
2017,10,27,05,36,8.00
2017,10,27,05,37,8.00
2017,10,27,05,38,8.10
2017,10,27,05,39,8.20
2017,10,27,05,40,8.40
2017,10,27,05,41,8.50
2017,10,27,05,42,8.70
2017,10,27,05,43,8.70
2017,10,27,05,44,8.90
2017,10,27,05,45,8.90
2017,10,27,05,46,9.00
2017,10,27,05,47,9.10
2017,10,27,05,48,9.20
2017,10,27,05,49,9.20
2017,10,27,05,50,9.20
2017,10,27,05,51,9.20
2017,10,27,05,52,9.20
2017,10,27,05,53,9.20
2017,10,27,05,54,9.30
2017,10,27,05,55,9.40
2017,10,27,05,56,9.50
2017,10,27,05,57,9.60
2017,10,27,05,58,9.70
2017,10,27,05,59,9.70
2017,10,27,06,00,9.80
2017,10,27,06,01,9.90
2017,10,27,06,02,9.90
2017,10,27,06,03,10.00
2017,10,27,06,04,10.10
2017,10,27,06,05,10.10
2017,10,27,06,06,10.20
2017,10,27,06,07,10.30
2017,10,27,06,08,10.30
2017,10,27,06,09,10.30
2017,10,27,06,10,10.40
2017,10,27,06,11,10.40
2017,10,27,06,12,10.40
2017,10,27,06,13,10.40
2017,10,27,06,14,10.40
2017,10,27,06,15,10.40
2017,10,27,06,16,10.60
2017,10,27,06,17,10.60
2017,10,27,06,18,10.60
2017,10,27,06,19,10.60
2017,10,27,06,20,10.60
2017,10,27,06,21,10.60
2017,10,27,06,22,10.60
2017,10,27,06,23,10.60
2017,10,27,06,24,10.60
2017,10,27,06,25,10.60
2017,10,27,06,26,10.60
2017,10,27,06,27,10.60
2017,10,27,06,28,10.60
2017,10,27,06,29,10.60
2017,10,27,06,30,10.60
2017,10,27,06,31,10.70
2017,10,27,06,32,10.70
2017,10,27,06,33,10.70
2017,10,27,06,34,10.60
2017,10,27,06,35,10.60
2017,10,27,06,36,10.60
2017,10,27,06,37,10.60
2017,10,27,06,38,10.60
2017,10,27,06,39,10.60
2017,10,27,06,40,10.60
2017,10,27,06,41,10.60
2017,10,27,06,42,10.70
2017,10,27,06,43,10.70
2017,10,27,06,44,10.70
2017,10,27,06,45,10.70
2017,10,27,06,46,10.70
2017,10,27,06,47,10.70
2017,10,27,06,48,10.70
2017,10,27,06,49,10.70
2017,10,27,06,50,10.70
2017,10,27,06,51,10.70
2017,10,27,06,52,10.70
2017,10,27,06,53,10.70
2017,10,27,06,54,10.70
2017,10,27,06,55,10.70
2017,10,27,06,56,10.70
2017,10,27,06,57,10.70
2017,10,27,06,58,10.60
2017,10,27,06,59,10.60
2017,10,27,07,00,10.60
2017,10,27,07,01,10.60
2017,10,27,07,02,10.60
2017,10,27,07,03,10.60
2017,10,27,07,04,10.60
2017,10,27,07,05,10.60
2017,10,27,07,06,10.60
2017,10,27,07,07,10.60
2017,10,27,07,08,10.60
2017,10,27,07,09,10.60
2017,10,27,07,10,10.60
2017,10,27,07,11,10.60
2017,10,27,07,12,10.60
2017,10,27,07,13,10.60
2017,10,27,07,14,10.60
2017,10,27,07,15,10.60
2017,10,27,07,16,10.60
2017,10,27,07,17,10.60
2017,10,27,07,18,10.60
2017,10,27,07,19,10.60
2017,10,27,07,20,10.60
2017,10,27,07,21,10.70
2017,10,27,07,22,10.70
2017,10,27,07,23,10.70
2017,10,27,07,24,10.70
2017,10,27,07,25,10.70
2017,10,27,07,26,10.70
2017,10,27,07,27,10.70
2017,10,27,07,28,10.80
2017,10,27,07,29,10.80
2017,10,27,07,30,10.80
2017,10,27,07,31,10.80
2017,10,27,07,32,10.90
2017,10,27,07,33,10.90
2017,10,27,07,34,10.90
2017,10,27,07,35,10.90
2017,10,27,07,36,10.90
2017,10,27,07,37,10.90
2017,10,27,07,38,10.90
2017,10,27,07,39,10.90
2017,10,27,07,40,10.90
2017,10,27,07,41,10.90
2017,10,27,07,42,10.90
2017,10,27,07,43,10.90
2017,10,27,07,44,10.90
2017,10,27,07,45,10.90
2017,10,27,07,46,10.90
2017,10,27,07,47,10.90
2017,10,27,07,48,10.80
2017,10,27,07,49,10.80
2017,10,27,07,50,10.80
2017,10,27,07,51,10.80
2017,10,27,07,52,10.80
2017,10,27,07,53,10.80
2017,10,27,07,54,10.80
2017,10,27,07,55,10.90
2017,10,27,07,56,10.90
2017,10,27,07,57,10.90
2017,10,27,07,58,10.90
2017,10,27,07,59,10.90
2017,10,27,08,00,10.90
2017,10,27,08,01,10.90
2017,10,27,08,02,10.90
2017,10,27,08,03,10.90
2017,10,27,08,04,11.00
2017,10,27,08,05,11.10
2017,10,27,08,06,11.10
2017,10,27,08,07,11.10
2017,10,27,08,08,11.10
2017,10,27,08,09,11.10
2017,10,27,08,10,11.10
2017,10,27,08,11,11.10
2017,10,27,08,12,11.10
2017,10,27,08,13,11.10
2017,10,27,08,14,11.10
2017,10,27,08,15,11.10
2017,10,27,08,16,11.10
2017,10,27,08,17,11.10
2017,10,27,08,18,11.10
2017,10,27,08,19,11.10
2017,10,27,08,20,11.10
2017,10,27,08,21,11.10
2017,10,27,08,22,11.10
2017,10,27,08,23,11.10
2017,10,27,08,24,11.10
2017,10,27,08,25,11.10
2017,10,27,08,26,11.10
2017,10,27,08,27,11.10
2017,10,27,08,28,11.10
2017,10,27,08,29,11.20
2017,10,27,08,30,11.20
2017,10,27,08,31,11.20
2017,10,27,08,32,11.20
2017,10,27,08,33,11.20
2017,10,27,08,34,11.20
2017,10,27,08,35,11.30
2017,10,27,08,36,11.30
2017,10,27,08,37,11.30
2017,10,27,08,38,11.30
2017,10,27,08,39,11.40
2017,10,27,08,40,11.40
2017,10,27,08,41,11.40
2017,10,27,08,42,11.40
2017,10,27,08,43,11.40
2017,10,27,08,44,11.40
2017,10,27,08,45,11.40
2017,10,27,08,46,11.40
2017,10,27,08,47,11.40
2017,10,27,08,48,11.50
2017,10,27,08,49,11.60
2017,10,27,08,50,11.60
2017,10,27,08,51,11.60
2017,10,27,08,52,11.60
2017,10,27,08,53,11.60
2017,10,27,08,54,11.60
2017,10,27,08,55,11.60
2017,10,27,08,56,11.60
2017,10,27,08,57,11.70
2017,10,27,08,58,11.70
2017,10,27,08,59,11.80
2017,10,27,09,00,11.80
2017,10,27,09,01,11.80
2017,10,27,09,02,11.80
2017,10,27,09,03,11.80
2017,10,27,09,04,11.80
2017,10,27,09,05,11.80
2017,10,27,09,06,11.80
2017,10,27,09,07,11.80
2017,10,27,09,08,11.80
2017,10,27,09,09,11.80
2017,10,27,09,10,11.90
2017,10,27,09,11,11.90
2017,10,27,09,12,11.90
2017,10,27,09,13,12.00
2017,10,27,09,14,12.00
2017,10,27,09,15,12.00
2017,10,27,09,16,12.10
2017,10,27,09,17,12.10
2017,10,27,09,18,12.30
2017,10,27,09,19,12.30
2017,10,27,09,20,12.50
2017,10,27,09,21,12.50
2017,10,27,09,22,12.60
2017,10,27,09,23,12.80
2017,10,27,09,24,12.80
2017,10,27,09,25,12.90
2017,10,27,09,26,13.00
2017,10,27,09,27,13.00
2017,10,27,09,28,13.10
2017,10,27,09,29,13.10
2017,10,27,09,30,13.10
2017,10,27,09,31,13.10
2017,10,27,09,32,13.20
2017,10,27,09,33,13.20
2017,10,27,09,34,13.20
2017,10,27,09,35,13.20
2017,10,27,09,36,13.20
2017,10,27,09,37,13.20
2017,10,27,09,38,13.30
2017,10,27,09,39,13.30
2017,10,27,09,40,13.30
2017,10,27,09,41,13.30
2017,10,27,09,42,13.40
2017,10,27,09,43,13.40
2017,10,27,09,44,13.50
2017,10,27,09,45,13.50
2017,10,27,09,46,13.50
2017,10,27,09,47,13.60
2017,10,27,09,48,13.60
2017,10,27,09,49,13.60
2017,10,27,09,50,13.60
2017,10,27,09,51,13.70
2017,10,27,09,52,13.70
2017,10,27,09,53,13.80
2017,10,27,09,54,13.80
2017,10,27,09,55,13.90
2017,10,27,09,56,13.90
2017,10,27,09,57,14.00
2017,10,27,09,58,14.00
2017,10,27,09,59,14.20
2017,10,27,10,00,14.20
2017,10,27,10,01,14.20
2017,10,27,10,02,14.20
2017,10,27,10,03,14.30
2017,10,27,10,04,14.30
2017,10,27,10,05,14.20
2017,10,27,10,06,14.20
2017,10,27,10,07,14.30
2017,10,27,10,08,14.30
2017,10,27,10,09,14.30
2017,10,27,10,10,14.30
2017,10,27,10,11,14.30
2017,10,27,10,12,14.40
2017,10,27,10,13,14.40
2017,10,27,10,14,14.50
2017,10,27,10,15,14.50
2017,10,27,10,16,14.50
2017,10,27,10,17,14.60
2017,10,27,10,18,14.60
2017,10,27,10,19,14.70
2017,10,27,10,20,14.70
2017,10,27,10,21,14.80
2017,10,27,10,22,14.80
2017,10,27,10,23,14.80
2017,10,27,10,24,14.80
2017,10,27,10,25,14.80
2017,10,27,10,26,14.80
2017,10,27,10,27,14.80
2017,10,27,10,28,14.80
2017,10,27,10,29,14.80
2017,10,27,10,30,14.80
2017,10,27,10,31,14.80
2017,10,27,10,32,14.80
2017,10,27,10,33,14.80
2017,10,27,10,34,14.90
2017,10,27,10,35,14.90
2017,10,27,10,36,14.90
2017,10,27,10,37,14.90
2017,10,27,10,38,14.90
2017,10,27,10,39,14.90
2017,10,27,10,40,14.90
2017,10,27,10,41,14.90
2017,10,27,10,42,14.90
2017,10,27,10,43,14.90
2017,10,27,10,44,14.90
2017,10,27,10,45,14.90
2017,10,27,10,46,14.90
2017,10,27,10,47,14.90
2017,10,27,10,48,14.90
2017,10,27,10,49,14.90
2017,10,27,10,50,14.90
2017,10,27,10,51,14.90
2017,10,27,10,52,15.00
2017,10,27,10,53,15.00
2017,10,27,10,54,15.00
2017,10,27,10,55,15.00
2017,10,27,10,56,15.00
2017,10,27,10,57,15.00
2017,10,27,10,58,15.00
2017,10,27,10,59,15.10
2017,10,27,11,00,15.10
2017,10,27,11,01,15.00
2017,10,27,11,02,15.10
2017,10,27,11,03,15.00
2017,10,27,11,04,15.10
2017,10,27,11,05,15.10
2017,10,27,11,06,15.10
2017,10,27,11,07,15.10
2017,10,27,11,08,15.10
2017,10,27,11,09,15.10
2017,10,27,11,10,15.10
2017,10,27,11,11,15.10
2017,10,27,11,12,15.10
2017,10,27,11,13,15.20
2017,10,27,11,14,15.20
2017,10,27,11,15,15.20
2017,10,27,11,16,15.20
2017,10,27,11,17,15.30
2017,10,27,11,18,15.30
2017,10,27,11,19,15.30
2017,10,27,11,20,15.30
2017,10,27,11,21,15.30
2017,10,27,11,22,15.40
2017,10,27,11,23,15.40
2017,10,27,11,24,15.40
2017,10,27,11,25,15.40
2017,10,27,11,26,15.40
2017,10,27,11,27,15.50
2017,10,27,11,28,15.50
2017,10,27,11,29,15.50
2017,10,27,11,30,15.50
2017,10,27,11,31,15.60
2017,10,27,11,32,15.60
2017,10,27,11,33,15.60
2017,10,27,11,34,15.70
2017,10,27,11,35,15.70
2017,10,27,11,36,15.70
2017,10,27,11,37,15.70
2017,10,27,11,38,15.70
2017,10,27,11,39,15.70
2017,10,27,11,40,15.80
2017,10,27,11,41,15.80
2017,10,27,11,42,15.80
2017,10,27,11,43,15.80
2017,10,27,11,44,15.80
2017,10,27,11,45,15.90
2017,10,27,11,46,15.90
2017,10,27,11,47,16.00
2017,10,27,11,48,16.10
2017,10,27,11,49,16.10
2017,10,27,11,50,16.20
2017,10,27,11,51,16.20
2017,10,27,11,52,16.20
2017,10,27,11,53,16.30
2017,10,27,11,54,16.30
2017,10,27,11,55,16.30
2017,10,27,11,56,16.30
2017,10,27,11,57,16.30
2017,10,27,11,58,16.30
2017,10,27,11,59,16.40
2017,10,27,12,00,16.40
2017,10,27,12,01,16.40
2017,10,27,12,02,16.40
2017,10,27,12,03,16.40
2017,10,27,12,04,16.40
2017,10,27,12,05,16.40
2017,10,27,12,06,16.40
2017,10,27,12,07,16.40
2017,10,27,12,08,16.60
2017,10,27,12,09,16.60
2017,10,27,12,10,16.60
2017,10,27,12,11,16.70
2017,10,27,12,12,16.70
2017,10,27,12,13,16.70
2017,10,27,12,14,16.70
2017,10,27,12,15,16.70
2017,10,27,12,16,16.70
2017,10,27,12,17,16.70
2017,10,27,12,18,16.70
2017,10,27,12,19,16.70
2017,10,27,12,20,16.70
2017,10,27,12,21,16.70
2017,10,27,12,22,16.80
2017,10,27,12,23,16.80
2017,10,27,12,24,16.80
2017,10,27,12,25,16.90
2017,10,27,12,26,16.90
2017,10,27,12,27,16.90
2017,10,27,12,28,16.90
2017,10,27,12,29,17.00
2017,10,27,12,30,17.00
2017,10,27,12,31,17.00
2017,10,27,12,32,17.10
2017,10,27,12,33,17.10
2017,10,27,12,34,17.10
2017,10,27,12,35,17.20
2017,10,27,12,36,17.30
2017,10,27,12,37,17.30
2017,10,27,12,38,17.50
2017,10,27,12,39,17.60
2017,10,27,12,40,17.70
2017,10,27,12,41,17.70
2017,10,27,12,42,17.70
2017,10,27,12,43,17.70
2017,10,27,12,44,17.70
2017,10,27,12,45,17.70
2017,10,27,12,46,17.70
2017,10,27,12,47,17.70
2017,10,27,12,48,17.80
2017,10,27,12,49,17.90
2017,10,27,12,50,17.90
2017,10,27,12,51,17.80
2017,10,27,12,52,17.80
2017,10,27,12,53,17.80
2017,10,27,12,54,17.90
2017,10,27,12,55,17.90
2017,10,27,12,56,17.80
2017,10,27,12,57,17.80
2017,10,27,12,58,17.80
2017,10,27,12,59,17.80
2017,10,27,13,00,17.80
2017,10,27,13,01,17.70
2017,10,27,13,02,17.80
2017,10,27,13,03,17.80
2017,10,27,13,04,17.80
2017,10,27,13,05,17.90
2017,10,27,13,06,17.80
2017,10,27,13,07,17.80
2017,10,27,13,08,17.70
2017,10,27,13,09,17.70
2017,10,27,13,10,17.70
2017,10,27,13,11,17.70
2017,10,27,13,12,17.70
2017,10,27,13,13,17.70
2017,10,27,13,14,17.70
2017,10,27,13,15,17.70
2017,10,27,13,16,17.70
2017,10,27,13,17,17.70
2017,10,27,13,18,17.70
2017,10,27,13,19,17.70
2017,10,27,13,20,17.60
2017,10,27,13,21,17.60
2017,10,27,13,22,17.60
2017,10,27,13,23,17.60
2017,10,27,13,24,17.60
2017,10,27,13,25,17.60
2017,10,27,13,26,17.70
2017,10,27,13,27,17.70
2017,10,27,13,28,17.70
2017,10,27,13,29,17.70
2017,10,27,13,30,17.70
2017,10,27,13,31,17.70
2017,10,27,13,32,17.80
2017,10,27,13,33,17.80
2017,10,27,13,34,17.80
2017,10,27,13,35,17.80
2017,10,27,13,36,17.80
2017,10,27,13,37,17.80
2017,10,27,13,38,17.80
2017,10,27,13,39,17.80
2017,10,27,13,40,17.80
2017,10,27,13,41,17.80
2017,10,27,13,42,17.90
2017,10,27,13,43,17.90
2017,10,27,13,44,17.90
2017,10,27,13,45,17.90
2017,10,27,13,46,18.00
2017,10,27,13,47,18.10
2017,10,27,13,48,18.20
2017,10,27,13,49,18.20
2017,10,27,13,50,18.20
2017,10,27,13,51,18.30
2017,10,27,13,52,18.30
2017,10,27,13,53,18.40
2017,10,27,13,54,18.50
2017,10,27,13,55,18.50
2017,10,27,13,56,18.50
2017,10,27,13,57,18.50
2017,10,27,13,58,18.60
2017,10,27,13,59,18.60
2017,10,27,14,00,18.50
2017,10,27,14,01,18.50
2017,10,27,14,02,18.50
2017,10,27,14,03,18.40
2017,10,27,14,04,18.40
2017,10,27,14,05,18.30
2017,10,27,14,06,18.30
2017,10,27,14,07,18.30
2017,10,27,14,08,18.30
2017,10,27,14,09,18.30
2017,10,27,14,10,18.40
2017,10,27,14,11,18.30
2017,10,27,14,12,18.30
2017,10,27,14,13,18.30
2017,10,27,14,14,18.30
2017,10,27,14,15,18.40
2017,10,27,14,16,18.40
2017,10,27,14,17,18.40
2017,10,27,14,18,18.40
2017,10,27,14,19,18.40
2017,10,27,14,20,18.40
2017,10,27,14,21,18.50
2017,10,27,14,22,18.50
2017,10,27,14,23,18.50
2017,10,27,14,24,18.40
2017,10,27,14,25,18.40
2017,10,27,14,26,18.30
2017,10,27,14,27,18.20
2017,10,27,14,28,18.20
2017,10,27,14,29,18.20
2017,10,27,14,30,18.20
2017,10,27,14,31,18.20
2017,10,27,14,32,18.20
2017,10,27,14,33,18.20
2017,10,27,14,34,18.30
2017,10,27,14,35,18.30
2017,10,27,14,36,18.40
2017,10,27,14,37,18.40
2017,10,27,14,38,18.40
2017,10,27,14,39,18.40
2017,10,27,14,40,18.40
2017,10,27,14,41,18.40
2017,10,27,14,42,18.40
2017,10,27,14,43,18.50
2017,10,27,14,44,18.60
2017,10,27,14,45,18.60
2017,10,27,14,46,18.60
2017,10,27,14,47,18.70
2017,10,27,14,48,18.80
2017,10,27,14,49,18.80
2017,10,27,14,50,18.80
2017,10,27,14,51,18.90
2017,10,27,14,52,18.90
2017,10,27,14,53,18.90
2017,10,27,14,54,18.90
2017,10,27,14,55,18.90
2017,10,27,14,56,18.90
2017,10,27,14,57,18.90
2017,10,27,14,58,18.90
2017,10,27,14,59,18.90
2017,10,27,15,00,18.90
2017,10,27,15,01,18.90
2017,10,27,15,02,18.90
2017,10,27,15,03,18.90
2017,10,27,15,04,18.90
2017,10,27,15,05,18.90
2017,10,27,15,06,18.90
2017,10,27,15,07,18.90
2017,10,27,15,08,18.90
2017,10,27,15,09,18.90
2017,10,27,15,10,18.90
2017,10,27,15,11,19.00
2017,10,27,15,12,19.10
2017,10,27,15,13,19.10
2017,10,27,15,14,19.10
2017,10,27,15,15,19.10
2017,10,27,15,16,19.10
2017,10,27,15,17,19.10
2017,10,27,15,18,19.10
2017,10,27,15,19,19.10
2017,10,27,15,20,19.00
2017,10,27,15,21,18.90
2017,10,27,15,22,18.90
2017,10,27,15,23,18.90
2017,10,27,15,24,18.90
2017,10,27,15,25,18.90
2017,10,27,15,26,18.80
2017,10,27,15,27,18.80
2017,10,27,15,28,18.80
2017,10,27,15,29,18.90
2017,10,27,15,30,18.90
2017,10,27,15,31,18.90
2017,10,27,15,32,18.90
2017,10,27,15,33,18.80
2017,10,27,15,34,18.80
2017,10,27,15,35,18.70
2017,10,27,15,36,18.70
2017,10,27,15,37,18.70
2017,10,27,15,38,18.60
2017,10,27,15,39,18.50
2017,10,27,15,40,18.50
2017,10,27,15,41,18.40
2017,10,27,15,42,18.40
2017,10,27,15,43,18.40
2017,10,27,15,44,18.40
2017,10,27,15,45,18.30
2017,10,27,15,46,18.20
2017,10,27,15,47,18.20
2017,10,27,15,48,18.20
2017,10,27,15,49,18.10
2017,10,27,15,50,18.10
2017,10,27,15,51,18.00
2017,10,27,15,52,17.90
2017,10,27,15,53,17.90
2017,10,27,15,54,17.90
2017,10,27,15,55,17.90
2017,10,27,15,56,17.90
2017,10,27,15,57,17.90
2017,10,27,15,58,17.90
2017,10,27,15,59,17.90
2017,10,27,16,00,17.90
2017,10,27,16,01,17.90
2017,10,27,16,02,17.90
2017,10,27,16,03,17.90
2017,10,27,16,04,17.90
2017,10,27,16,05,17.90
2017,10,27,16,06,17.90
2017,10,27,16,07,17.90
2017,10,27,16,08,17.90
2017,10,27,16,09,17.90
2017,10,27,16,10,17.80
2017,10,27,16,11,17.70
2017,10,27,16,12,17.70
2017,10,27,16,13,17.60
2017,10,27,16,14,17.60
2017,10,27,16,15,17.60
2017,10,27,16,16,17.50
2017,10,27,16,17,17.40
2017,10,27,16,18,17.40
2017,10,27,16,19,17.40
2017,10,27,16,20,17.30
2017,10,27,16,21,17.30
2017,10,27,16,22,17.30
2017,10,27,16,23,17.30
2017,10,27,16,24,17.30
2017,10,27,16,25,17.30
2017,10,27,16,26,17.30
2017,10,27,16,27,17.30
2017,10,27,16,28,17.20
2017,10,27,16,29,17.20
2017,10,27,16,30,17.20
2017,10,27,16,31,17.20
2017,10,27,16,32,17.20
2017,10,27,16,33,17.30
2017,10,27,16,34,17.30
2017,10,27,16,35,17.20
2017,10,27,16,36,17.20
2017,10,27,16,37,17.20
2017,10,27,16,38,17.20
2017,10,27,16,39,17.20
2017,10,27,16,40,17.20
2017,10,27,16,41,17.20
2017,10,27,16,42,17.30
2017,10,27,16,43,17.30
2017,10,27,16,44,17.30
2017,10,27,16,45,17.30
2017,10,27,16,46,17.30
2017,10,27,16,47,17.20
2017,10,27,16,48,17.20
2017,10,27,16,49,17.20
2017,10,27,16,50,17.20
2017,10,27,16,51,17.10
2017,10,27,16,52,17.10
2017,10,27,16,53,17.10
2017,10,27,16,54,17.00
2017,10,27,16,55,17.00
2017,10,27,16,56,17.00
2017,10,27,16,57,16.90
2017,10,27,16,58,16.90
2017,10,27,16,59,16.80
2017,10,27,17,00,16.80
2017,10,27,17,01,16.70
2017,10,27,17,02,16.70
2017,10,27,17,03,16.70
2017,10,27,17,04,16.70
2017,10,27,17,05,16.60
2017,10,27,17,06,16.60
2017,10,27,17,07,16.60
2017,10,27,17,08,16.50
2017,10,27,17,09,16.40
2017,10,27,17,10,16.40
2017,10,27,17,11,16.40
2017,10,27,17,12,16.40
2017,10,27,17,13,16.40
2017,10,27,17,14,16.40
2017,10,27,17,15,16.40
2017,10,27,17,16,16.30
2017,10,27,17,17,16.30
2017,10,27,17,18,16.30
2017,10,27,17,19,16.30
2017,10,27,17,20,16.30
2017,10,27,17,21,16.30
2017,10,27,17,22,16.20
2017,10,27,17,23,16.20
2017,10,27,17,24,16.20
2017,10,27,17,25,16.10
2017,10,27,17,26,16.10
2017,10,27,17,27,16.10
2017,10,27,17,28,16.10
2017,10,27,17,29,16.10
2017,10,27,17,30,15.90
2017,10,27,17,31,15.90
2017,10,27,17,32,15.80
2017,10,27,17,33,15.80
2017,10,27,17,34,15.80
2017,10,27,17,35,15.80